User: anonymous   Login
Location: Pine Mountain Observatory
(43.7910°N, 120.9377°W)
Time: 21:41:22
(UTC-07:00)
Language:

Cosmos 1076 Rocket - Orbit

View from above orbital plane
View from above orbital plane
View from above satellite
View from above satellite

Ground track
Ground track

The orbit data is extracted from the following two-line orbital elements,

1 11267U 79011B   18111.58012653 +.00000101 +00000-0 +80957-5 0  9993
2 11267 082.5221 298.3202 0015384 285.6861 074.2660 14.88889742100153
Epoch (UTC): 21 April 2018 13:55:22
Eccentricity: 0.0015384
inclination: 82.5221°
perigee height: 590 km
apogee height: 612 km
right ascension of ascending node: 298.3202°
argument of perigee: 285.6861°
revolutions per day: 14.88889742
mean anomaly at epoch: 74.2660°
orbit number at epoch: 10015

The dashed part of the orbit path shows where the satellite is in the earth's shadow,  

DLR